Time,TemperatureF,DewpointF,PressureIn,WindDirection,WindDirectionDegrees,WindSpeedMPH,WindSpeedGustMPH,Humidity,HourlyPrecipIn,Conditions,Clouds,dailyrainin,SoftwareType,DateUTC
2013-07-16 00:05:00,59.4,58.0,29.92,NW,313,0.0,1.0,96,0.00,,,0.00,weatherlink.com 1.10,2013-07-16 05:05:00,
2013-07-16 00:20:00,59.4,58.0,29.92,NW,313,0.0,0.0,96,0.00,,,0.00,weatherlink.com 1.10,2013-07-16 05:20:00,
2013-07-16 00:35:00,59.4,58.0,29.93,NW,313,0.0,0.0,96,0.00,,,0.00,weatherlink.com 1.10,2013-07-16 05:35:00,
2013-07-16 00:50:00,59.6,59.0,29.93,NW,313,0.0,1.0,96,0.00,,,0.00,weatherlink.com 1.10,2013-07-16 05:50:00,
2013-07-16 01:05:00,59.4,58.0,29.93,WNW,299,0.0,2.0,96,0.00,,,0.00,weatherlink.com 1.10,2013-07-16 06:05:00,
2013-07-16 01:20:00,59.4,58.0,29.92,WNW,299,0.0,0.0,96,0.00,,,0.00,weatherlink.com 1.10,2013-07-16 06:20:00,
2013-07-16 01:35:00,59.3,58.0,29.92,WNW,299,0.0,0.0,96,0.00,,,0.00,weatherlink.com 1.10,2013-07-16 06:35:00,
2013-07-16 01:50:00,59.5,58.0,29.92,WNW,299,0.0,0.0,95,0.00,,,0.00,weatherlink.com 1.10,2013-07-16 06:50:00,
2013-07-16 02:05:00,59.6,58.0,29.92,WNW,299,0.0,0.0,95,0.00,,,0.00,weatherlink.com 1.10,2013-07-16 07:05:00,
2013-07-16 02:20:00,59.6,58.0,29.93,WNW,299,0.0,0.0,95,0.00,,,0.00,weatherlink.com 1.10,2013-07-16 07:20:00,
2013-07-16 02:35:00,59.7,58.0,29.93,WNW,299,0.0,0.0,94,0.00,,,0.00,weatherlink.com 1.10,2013-07-16 07:35:00,
2013-07-16 02:51:00,59.7,58.0,29.93,WNW,299,0.0,0.0,94,0.00,,,0.00,weatherlink.com 1.10,2013-07-16 07:51:00,
2013-07-16 03:06:00,59.6,58.0,29.93,WNW,299,0.0,0.0,94,0.00,,,0.00,weatherlink.com 1.10,2013-07-16 08:06:00,
2013-07-16 03:21:00,59.6,58.0,29.93,WNW,299,0.0,0.0,94,0.00,,,0.00,weatherlink.com 1.10,2013-07-16 08:21:00,
2013-07-16 03:36:00,59.5,58.0,29.93,WNW,299,0.0,0.0,94,0.00,,,0.00,weatherlink.com 1.10,2013-07-16 08:36:00,
2013-07-16 03:51:00,59.5,58.0,29.92,WNW,299,0.0,0.0,94,0.00,,,0.00,weatherlink.com 1.10,2013-07-16 08:51:00,
2013-07-16 04:06:00,59.3,58.0,29.92,WNW,299,0.0,0.0,94,0.00,,,0.00,weatherlink.com 1.10,2013-07-16 09:06:00,
2013-07-16 04:21:00,59.2,58.0,29.92,WNW,300,0.0,2.0,94,0.00,,,0.00,weatherlink.com 1.10,2013-07-16 09:21:00,
2013-07-16 04:36:00,59.3,58.0,29.92,WNW,302,0.0,1.0,94,0.00,,,0.00,weatherlink.com 1.10,2013-07-16 09:36:00,
2013-07-16 04:51:00,59.3,58.0,29.92,WNW,302,0.0,1.0,94,0.00,,,0.00,weatherlink.com 1.10,2013-07-16 09:51:00,
2013-07-16 05:06:00,59.4,58.0,29.92,WNW,302,0.0,0.0,94,0.00,,,0.00,weatherlink.com 1.10,2013-07-16 10:06:00,
2013-07-16 05:21:00,59.4,58.0,29.92,WNW,302,0.0,0.0,94,0.00,,,0.00,weatherlink.com 1.10,2013-07-16 10:21:00,
2013-07-16 05:36:00,59.3,58.0,29.92,WNW,302,0.0,0.0,94,0.00,,,0.00,weatherlink.com 1.10,2013-07-16 10:36:00,
2013-07-16 05:51:00,59.4,58.0,29.92,WNW,302,0.0,0.0,94,0.00,,,0.00,weatherlink.com 1.10,2013-07-16 10:51:00,
2013-07-16 06:06:00,59.5,58.0,29.92,WNW,299,0.0,0.0,94,0.00,,,0.00,weatherlink.com 1.10,2013-07-16 11:06:00,
2013-07-16 06:21:00,59.5,58.0,29.93,WNW,299,0.0,0.0,94,0.00,,,0.00,weatherlink.com 1.10,2013-07-16 11:21:00,
2013-07-16 06:36:00,59.5,58.0,29.93,WNW,298,0.0,1.0,94,0.00,,,0.00,weatherlink.com 1.10,2013-07-16 11:36:00,
2013-07-16 06:51:00,59.5,58.0,29.94,WNW,298,0.0,1.0,94,0.00,,,0.00,weatherlink.com 1.10,2013-07-16 11:51:00,
2013-07-16 07:06:00,59.5,58.0,29.95,WNW,298,0.0,1.0,94,0.00,,,0.00,weatherlink.com 1.10,2013-07-16 12:06:00,
2013-07-16 07:21:00,59.5,58.0,29.95,WNW,298,0.0,2.0,94,0.00,,,0.00,weatherlink.com 1.10,2013-07-16 12:21:00,
2013-07-16 07:36:00,59.5,58.0,29.95,WNW,298,0.0,1.0,94,0.00,,,0.00,weatherlink.com 1.10,2013-07-16 12:36:00,
2013-07-16 07:51:00,59.6,58.0,29.96,WNW,298,0.0,1.0,94,0.00,,,0.00,weatherlink.com 1.10,2013-07-16 12:51:00,
2013-07-16 08:06:00,59.7,58.0,29.96,North,5,0.0,4.0,95,0.00,,,0.00,weatherlink.com 1.10,2013-07-16 13:06:00,
2013-07-16 08:21:00,59.6,58.0,29.97,NNW,333,0.0,2.0,95,0.00,,,0.00,weatherlink.com 1.10,2013-07-16 13:21:00,
2013-07-16 08:36:00,59.9,59.0,29.98,NNW,336,0.0,0.0,95,0.00,,,0.00,weatherlink.com 1.10,2013-07-16 13:36:00,
2013-07-16 08:51:00,59.9,59.0,29.98,NNW,331,0.0,0.0,95,0.00,,,0.00,weatherlink.com 1.10,2013-07-16 13:51:00,
2013-07-16 09:06:00,60.0,59.0,29.98,NNW,327,0.0,3.0,95,0.00,,,0.00,weatherlink.com 1.10,2013-07-16 14:06:00,
2013-07-16 09:21:00,60.1,59.0,29.98,NNW,330,0.0,3.0,95,0.00,,,0.00,weatherlink.com 1.10,2013-07-16 14:21:00,
2013-07-16 09:36:00,60.2,59.0,29.99,NNW,329,0.0,3.0,95,0.00,,,0.00,weatherlink.com 1.10,2013-07-16 14:36:00,
2013-07-16 09:51:00,60.1,59.0,29.99,NW,309,0.0,4.0,95,0.00,,,0.00,weatherlink.com 1.10,2013-07-16 14:51:00,
2013-07-16 10:06:00,60.5,59.0,29.99,North,355,0.0,3.0,95,0.00,,,0.00,weatherlink.com 1.10,2013-07-16 15:06:00,
2013-07-16 10:21:00,60.7,59.0,29.99,WNW,303,0.0,5.0,95,0.00,,,0.00,weatherlink.com 1.10,2013-07-16 15:21:00,
2013-07-16 10:36:00,60.6,59.0,29.99,NW,325,0.0,3.0,95,0.00,,,0.00,weatherlink.com 1.10,2013-07-16 15:36:00,
2013-07-16 10:51:00,60.6,60.0,29.99,NW,321,0.0,5.0,96,0.00,,,0.00,weatherlink.com 1.10,2013-07-16 15:51:00,
2013-07-16 11:06:00,60.6,59.0,30.00,NW,317,0.0,4.0,95,0.00,,,0.00,weatherlink.com 1.10,2013-07-16 16:06:00,
2013-07-16 11:21:00,60.7,59.0,30.00,NNW,346,1.0,6.0,95,0.01,,,0.01,weatherlink.com 1.10,2013-07-16 16:21:00,
2013-07-16 11:36:00,60.6,60.0,30.01,NW,312,1.0,6.0,96,0.01,,,0.01,weatherlink.com 1.10,2013-07-16 16:36:00,
2013-07-16 12:06:00,60.7,59.0,30.02,NW,306,2.0,9.0,95,0.01,,,0.01,weatherlink.com 1.10,2013-07-16 17:06:00,
2013-07-16 12:21:00,61.1,60.0,30.02,NW,317,0.0,6.0,96,0.00,,,0.01,weatherlink.com 1.10,2013-07-16 17:21:00,
2013-07-16 12:36:00,61.0,60.0,30.02,North,360,0.0,8.0,95,0.00,,,0.01,weatherlink.com 1.10,2013-07-16 17:36:00,
2013-07-16 12:51:00,61.3,60.0,30.02,NNW,332,4.0,7.0,96,0.01,,,0.02,weatherlink.com 1.10,2013-07-16 17:51:00,
2013-07-16 13:06:00,61.3,60.0,30.02,North,355,0.0,6.0,95,0.01,,,0.02,weatherlink.com 1.10,2013-07-16 18:06:00,
2013-07-16 13:21:00,61.7,61.0,30.02,NW,304,0.0,4.0,96,0.01,,,0.02,weatherlink.com 1.10,2013-07-16 18:21:00,
2013-07-16 13:36:00,61.2,60.0,30.02,WNW,302,4.0,6.0,95,0.01,,,0.02,weatherlink.com 1.10,2013-07-16 18:36:00,
2013-07-16 13:51:00,61.5,60.0,30.02,NW,304,2.0,7.0,95,0.00,,,0.02,weatherlink.com 1.10,2013-07-16 18:51:00,
2013-07-16 14:06:00,62.3,60.0,30.01,WNW,287,0.0,4.0,93,0.00,,,0.02,weatherlink.com 1.10,2013-07-16 19:06:00,
2013-07-16 14:21:00,63.1,61.0,30.01,SSW,203,2.0,5.0,93,0.00,,,0.02,weatherlink.com 1.10,2013-07-16 19:21:00,
2013-07-16 14:37:00,63.1,61.0,30.01,ESE,104,1.0,8.0,91,0.00,,,0.02,weatherlink.com 1.10,2013-07-16 19:37:00,
2013-07-16 14:52:00,62.4,60.0,30.01,North,360,0.0,8.0,92,0.00,,,0.02,weatherlink.com 1.10,2013-07-16 19:52:00,
2013-07-16 15:07:00,62.4,60.0,30.01,NNW,334,0.0,6.0,93,0.00,,,0.02,weatherlink.com 1.10,2013-07-16 20:07:00,
2013-07-16 15:22:00,62.0,60.0,30.00,North,355,4.0,6.0,93,0.00,,,0.02,weatherlink.com 1.10,2013-07-16 20:22:00,
2013-07-16 15:37:00,63.0,61.0,30.00,North,9,1.0,7.0,92,0.00,,,0.02,weatherlink.com 1.10,2013-07-16 20:37:00,
2013-07-16 15:52:00,62.9,60.0,30.00,North,351,2.0,5.0,91,0.00,,,0.02,weatherlink.com 1.10,2013-07-16 20:52:00,
2013-07-16 16:07:00,62.4,60.0,30.00,NNW,336,0.0,5.0,92,0.00,,,0.02,weatherlink.com 1.10,2013-07-16 21:07:00,
2013-07-16 16:22:00,62.2,60.0,30.00,NW,315,0.0,5.0,93,0.00,,,0.02,weatherlink.com 1.10,2013-07-16 21:22:00,
2013-07-16 16:37:00,62.4,60.0,30.00,NW,322,1.0,6.0,92,0.00,,,0.02,weatherlink.com 1.10,2013-07-16 21:37:00,
2013-07-16 16:52:00,62.4,60.0,30.00,NW,308,0.0,4.0,91,0.00,,,0.02,weatherlink.com 1.10,2013-07-16 21:52:00,
2013-07-16 17:07:00,62.5,60.0,30.00,NW,319,0.0,5.0,91,0.00,,,0.02,weatherlink.com 1.10,2013-07-16 22:07:00,
2013-07-16 17:22:00,62.4,60.0,30.00,NW,322,0.0,5.0,91,0.00,,,0.02,weatherlink.com 1.10,2013-07-16 22:22:00,
2013-07-16 17:37:00,62.1,60.0,30.00,NNW,336,0.0,3.0,92,0.00,,,0.02,weatherlink.com 1.10,2013-07-16 22:37:00,
2013-07-16 17:52:00,62.4,60.0,29.99,NW,323,0.0,3.0,92,0.00,,,0.02,weatherlink.com 1.10,2013-07-16 22:52:00,
2013-07-16 18:07:00,62.3,60.0,29.99,NW,309,0.0,3.0,92,0.01,,,0.03,weatherlink.com 1.10,2013-07-16 23:07:00,
2013-07-16 18:22:00,62.1,60.0,29.99,NW,310,0.0,4.0,92,0.01,,,0.03,weatherlink.com 1.10,2013-07-16 23:22:00,
2013-07-16 18:37:00,62.3,60.0,29.98,NNW,342,0.0,4.0,92,0.01,,,0.03,weatherlink.com 1.10,2013-07-16 23:37:00,
2013-07-16 18:52:00,62.5,60.0,29.98,WNW,303,0.0,1.0,92,0.01,,,0.03,weatherlink.com 1.10,2013-07-16 23:52:00,
2013-07-16 19:07:00,62.5,60.0,29.98,WNW,303,0.0,2.0,91,0.00,,,0.03,weatherlink.com 1.10,2013-07-17 00:07:00,
2013-07-16 19:22:00,62.4,60.0,29.98,WNW,302,0.0,2.0,91,0.00,,,0.03,weatherlink.com 1.10,2013-07-17 00:22:00,
2013-07-16 19:37:00,62.4,60.0,29.98,WNW,302,1.0,3.0,92,0.01,,,0.04,weatherlink.com 1.10,2013-07-17 00:37:00,
2013-07-16 19:52:00,62.4,60.0,29.98,NW,311,0.0,1.0,93,0.01,,,0.04,weatherlink.com 1.10,2013-07-17 00:52:00,
2013-07-16 20:07:00,62.4,60.0,29.98,SW,226,0.0,3.0,92,0.02,,,0.05,weatherlink.com 1.10,2013-07-17 01:07:00,
2013-07-16 20:22:00,62.4,60.0,29.99,ENE,65,0.0,3.0,91,0.02,,,0.05,weatherlink.com 1.10,2013-07-17 01:22:00,
2013-07-16 20:37:00,62.3,60.0,30.00,ENE,65,0.0,1.0,93,0.02,,,0.06,weatherlink.com 1.10,2013-07-17 01:37:00,
2013-07-16 20:52:00,62.1,60.0,30.00,ENE,64,0.0,0.0,94,0.02,,,0.06,weatherlink.com 1.10,2013-07-17 01:52:00,
2013-07-16 21:07:00,62.0,60.0,30.00,ENE,64,0.0,0.0,94,0.01,,,0.06,weatherlink.com 1.10,2013-07-17 02:07:00,
2013-07-16 21:22:00,61.9,60.0,30.00,ENE,64,0.0,0.0,94,0.01,,,0.06,weatherlink.com 1.10,2013-07-17 02:22:00,
2013-07-16 21:37:00,61.7,60.0,30.01,ENE,64,0.0,1.0,93,0.01,,,0.07,weatherlink.com 1.10,2013-07-17 02:37:00,
2013-07-16 21:52:00,61.5,60.0,30.01,NNW,339,0.0,1.0,94,0.01,,,0.07,weatherlink.com 1.10,2013-07-17 02:52:00,
2013-07-16 22:07:00,61.3,60.0,30.02,NNW,338,0.0,0.0,95,0.02,,,0.08,weatherlink.com 1.10,2013-07-17 03:07:00,
2013-07-16 22:22:00,61.3,60.0,30.02,NNW,338,0.0,1.0,95,0.02,,,0.08,weatherlink.com 1.10,2013-07-17 03:22:00,
2013-07-16 22:37:00,61.3,60.0,30.03,NNW,338,0.0,0.0,94,0.01,,,0.08,weatherlink.com 1.10,2013-07-17 03:37:00,
2013-07-16 22:52:00,61.5,60.0,30.03,NNW,338,0.0,0.0,93,0.01,,,0.08,weatherlink.com 1.10,2013-07-17 03:52:00,
2013-07-16 23:07:00,61.7,59.0,30.04,NNW,338,0.0,0.0,92,0.00,,,0.08,weatherlink.com 1.10,2013-07-17 04:07:00,
2013-07-16 23:22:00,61.7,59.0,30.04,NNW,338,0.0,0.0,92,0.00,,,0.08,weatherlink.com 1.10,2013-07-17 04:22:00,
2013-07-16 23:37:00,61.8,60.0,30.04,NNW,335,0.0,1.0,92,0.00,,,0.08,weatherlink.com 1.10,2013-07-17 04:37:00,
2013-07-16 23:52:00,61.8,60.0,30.04,NNE,27,0.0,1.0,92,0.00,,,0.08,weatherlink.com 1.10,2013-07-17 04:52:00,